IGO25 VOHS-VABB

Flight info

Callsign IGO25
Flight time 1h 4m
Altitude 36000
Route TAMIV5 APUSU W18 OPAKA EMRAK2A
Aircraft A20N/M-SDE2E3FGHIRWXY/LB1

Departure

Time 2026-04-25 09:20
Airport Rajiv Gandhi International Airport (VOHS)

Arrival

Time 2026-04-25 10:24
Airport Chhatrapati Shivaji Maharaj International Airport (VABB)
Time Latitude Longitude Altitude Speed Heading
2026-04-25 08:34 17.23426 78.42655 1986 ft 0 kts
2026-04-25 09:02 17.23415 78.42655 1985 ft 2 kts
2026-04-25 09:03 17.23398 78.42654 1985 ft 2 kts
2026-04-25 09:03 17.23381 78.42653 1984 ft 2 kts
2026-04-25 09:03 17.23365 78.42651 1985 ft 2 kts
2026-04-25 09:03 17.23349 78.42648 1985 ft 2 kts 15°
2026-04-25 09:04 17.23333 78.42641 1984 ft 2 kts 39°
2026-04-25 09:04 17.23325 78.42628 1986 ft 2 kts 81°
2026-04-25 09:04 17.23324 78.42623 1986 ft 0 kts 85°
2026-04-25 09:08 17.23325 78.42623 1984 ft 0 kts 85°
2026-04-25 09:10 17.23326 78.42641 1986 ft 6 kts 85°
2026-04-25 09:10 17.23327 78.42665 1987 ft 4 kts 87°
2026-04-25 09:10 17.23305 78.42720 1984 ft 14 kts 149°
2026-04-25 09:11 17.23083 78.42807 1986 ft 19 kts 96°
2026-04-25 09:11 17.23083 78.42942 1983 ft 18 kts 89°
2026-04-25 09:11 17.23084 78.43073 1986 ft 18 kts 90°
2026-04-25 09:12 17.23083 78.43199 1983 ft 13 kts 89°
2026-04-25 09:12 17.23083 78.43205 1983 ft 0 kts 89°
2026-04-25 09:15 17.23083 78.43216 1986 ft 6 kts 88°
2026-04-25 09:15 17.23087 78.43306 1982 ft 18 kts 88°
2026-04-25 09:15 17.23090 78.43474 1982 ft 28 kts 89°
2026-04-25 09:16 17.23092 78.43706 1983 ft 36 kts 89°
2026-04-25 09:16 17.23096 78.43979 1983 ft 40 kts 89°
2026-04-25 09:16 17.23101 78.44279 1987 ft 40 kts 89°
2026-04-25 09:16 17.23103 78.44565 1984 ft 39 kts 89°
2026-04-25 09:17 17.23109 78.45075 1984 ft 33 kts 89°
2026-04-25 09:17 17.23104 78.45288 1984 ft 23 kts 110°
2026-04-25 09:17 17.23033 78.45322 1983 ft 0 kts 184°
2026-04-25 09:18 17.23019 78.45321 1984 ft 5 kts 184°
2026-04-25 09:18 17.22988 78.45311 1983 ft 4 kts 208°
2026-04-25 09:18 17.22964 78.45295 1983 ft 5 kts 214°
2026-04-25 09:19 17.22914 78.45243 1984 ft 11 kts 248°
2026-04-25 09:19 17.22908 78.45165 1984 ft 13 kts 269°
2026-04-25 09:19 17.22903 78.44855 1985 ft 81 kts 270°
2026-04-25 09:19 17.22893 78.43957 1983 ft 164 kts 269°
2026-04-25 09:20 17.22867 78.42613 2202 ft 207 kts 269°
2026-04-25 09:20 17.22842 78.40999 2889 ft 222 kts 268°
2026-04-25 09:20 17.22831 78.39405 3909 ft 219 kts 269°
2026-04-25 09:20 17.22815 78.37747 4359 ft 243 kts 270°
2026-04-25 09:21 17.22790 78.35884 4624 ft 268 kts 269°
2026-04-25 09:21 17.22772 78.33884 5096 ft 280 kts 271°
2026-04-25 09:21 17.23010 78.31842 5643 ft 285 kts 283°
2026-04-25 09:21 17.23541 78.29866 6151 ft 289 kts 288°
2026-04-25 09:22 17.24161 78.27860 6869 ft 290 kts 289°
2026-04-25 09:22 17.24782 78.25851 7618 ft 292 kts 289°
2026-04-25 09:22 17.25400 78.23817 8396 ft 294 kts 288°
2026-04-25 09:22 17.26011 78.21771 9167 ft 296 kts 288°
2026-04-25 09:23 17.26621 78.19700 9931 ft 299 kts 288°
2026-04-25 09:23 17.27243 78.17579 10415 ft 313 kts 288°
2026-04-25 09:23 17.27901 78.15334 10699 ft 332 kts 288°
2026-04-25 09:23 17.28580 78.13018 11189 ft 342 kts 288°
2026-04-25 09:24 17.29280 78.10623 11817 ft 347 kts 288°
2026-04-25 09:24 17.29969 78.08263 12458 ft 352 kts 288°
2026-04-25 09:24 17.30687 78.05799 13139 ft 356 kts 288°
2026-04-25 09:24 17.31408 78.03318 13688 ft 358 kts 287°
2026-04-25 09:25 17.32133 78.00818 13892 ft 359 kts 287°
2026-04-25 09:25 17.32855 77.98324 13923 ft 361 kts 287°
2026-04-25 09:25 17.33584 77.95807 13922 ft 361 kts 287°
2026-04-25 09:25 17.34312 77.93289 13933 ft 362 kts 287°
2026-04-25 09:26 17.35041 77.90768 13929 ft 362 kts 287°
2026-04-25 09:26 17.35755 77.88296 13928 ft 362 kts 287°
2026-04-25 09:26 17.36487 77.85762 13924 ft 362 kts 287°
2026-04-25 09:26 17.37217 77.83234 13928 ft 362 kts 287°
2026-04-25 09:27 17.37943 77.80716 13931 ft 362 kts 287°
2026-04-25 09:27 17.38661 77.78228 14249 ft 365 kts 287°
2026-04-25 09:27 17.39390 77.75699 14982 ft 366 kts 287°
2026-04-25 09:27 17.40144 77.73085 15836 ft 363 kts 286°
2026-04-25 09:28 17.40861 77.70599 16656 ft 361 kts 286°
2026-04-25 09:28 17.41587 77.68079 17433 ft 361 kts 286°
2026-04-25 09:28 17.42313 77.65555 18100 ft 364 kts 286°
2026-04-25 09:28 17.43046 77.63005 18635 ft 367 kts 286°
2026-04-25 09:29 17.43750 77.60426 19144 ft 371 kts 282°
2026-04-25 09:29 17.44230 77.57774 19692 ft 373 kts 277°
2026-04-25 09:29 17.44589 77.55075 20219 ft 375 kts 276°
2026-04-25 09:29 17.44922 77.52358 20775 ft 378 kts 275°
2026-04-25 09:30 17.45258 77.49615 21333 ft 381 kts 275°
2026-04-25 09:30 17.45601 77.46863 21895 ft 383 kts 275°
2026-04-25 09:30 17.45947 77.44124 22460 ft 386 kts 275°
2026-04-25 09:30 17.46303 77.41329 23010 ft 388 kts 274°
2026-04-25 09:31 17.46655 77.38576 23526 ft 391 kts 274°
2026-04-25 09:31 17.46900 77.36664 23826 ft 392 kts 274°
2026-04-25 09:31 17.47378 77.32939 24424 ft 395 kts 274°
2026-04-25 09:31 17.47742 77.30089 24895 ft 396 kts 274°
2026-04-25 09:32 17.48107 77.27234 25345 ft 397 kts 274°
2026-04-25 09:32 17.48472 77.24368 25788 ft 398 kts 274°
2026-04-25 09:32 17.48838 77.21494 26209 ft 399 kts 274°
2026-04-25 09:32 17.49205 77.18602 26636 ft 401 kts 273°
2026-04-25 09:33 17.49568 77.15746 27046 ft 402 kts 273°
2026-04-25 09:33 17.49940 77.12807 27461 ft 403 kts 273°
2026-04-25 09:33 17.50305 77.09923 27854 ft 405 kts 273°
2026-04-25 09:33 17.50721 77.06996 28236 ft 408 kts 276°
2026-04-25 09:34 17.51432 77.04120 28597 ft 414 kts 283°
2026-04-25 09:34 17.52597 77.01339 28949 ft 424 kts 294°
2026-04-25 09:34 17.54319 76.98782 29303 ft 434 kts 303°
2026-04-25 09:34 17.56063 76.96662 29590 ft 437 kts 305°
2026-04-25 09:35 17.58096 76.94291 29925 ft 440 kts 306°
2026-04-25 09:35 17.59904 76.92179 30169 ft 442 kts 305°
2026-04-25 09:35 17.61900 76.89816 30414 ft 444 kts 304°
2026-04-25 09:35 17.63930 76.87385 30692 ft 445 kts 304°
2026-04-25 09:36 17.65967 76.84925 30965 ft 447 kts 304°
2026-04-25 09:36 17.67973 76.82489 31227 ft 448 kts 304°
2026-04-25 09:36 17.69943 76.80091 31466 ft 450 kts 304°
2026-04-25 09:36 17.72059 76.77508 31612 ft 455 kts 304°
2026-04-25 09:37 17.74132 76.74976 31707 ft 461 kts 304°
2026-04-25 09:37 17.76233 76.72409 31828 ft 466 kts 304°
2026-04-25 09:37 17.78352 76.69822 32011 ft 469 kts 304°
2026-04-25 09:37 17.80477 76.67228 32301 ft 469 kts 304°
2026-04-25 09:38 17.82605 76.64630 32631 ft 469 kts 304°
2026-04-25 09:38 17.84725 76.62037 32950 ft 468 kts 303°
2026-04-25 09:38 17.86811 76.59482 33273 ft 467 kts 303°
2026-04-25 09:38 17.88923 76.56893 33593 ft 466 kts 303°
2026-04-25 09:39 17.90916 76.54230 33894 ft 461 kts 298°
2026-04-25 09:39 17.92689 76.51464 34161 ft 458 kts 296°
2026-04-25 09:39 17.94381 76.48649 34449 ft 455 kts 295°
2026-04-25 09:40 17.97678 76.42988 35022 ft 452 kts 294°
2026-04-25 09:40 17.99297 76.40182 35292 ft 451 kts 294°
2026-04-25 09:40 18.00922 76.37362 35551 ft 451 kts 294°
2026-04-25 09:40 18.02514 76.34595 35806 ft 450 kts 294°
2026-04-25 09:41 18.04132 76.31781 36048 ft 449 kts 294°
2026-04-25 09:41 18.05746 76.28973 36292 ft 449 kts 294°
2026-04-25 09:41 18.07356 76.26170 36530 ft 448 kts 294°
2026-04-25 09:41 18.08967 76.23365 36761 ft 447 kts 294°
2026-04-25 09:42 18.10570 76.20573 37016 ft 446 kts 294°
2026-04-25 09:42 18.12175 76.17776 37261 ft 445 kts 294°
2026-04-25 09:42 18.13773 76.14991 37502 ft 445 kts 294°
2026-04-25 09:42 18.15344 76.12248 37731 ft 444 kts 294°
2026-04-25 09:43 18.16931 76.09479 37930 ft 443 kts 294°
2026-04-25 09:43 18.18520 76.06704 37929 ft 443 kts 294°
2026-04-25 09:43 18.21686 76.01173 37918 ft 443 kts 294°
2026-04-25 09:44 18.24852 75.95637 37930 ft 442 kts 294°
2026-04-25 09:44 18.28012 75.90109 37927 ft 442 kts 294°
2026-04-25 09:45 18.31172 75.84577 37925 ft 442 kts 294°
2026-04-25 09:45 18.34335 75.79032 37922 ft 442 kts 294°
2026-04-25 09:46 18.37500 75.73480 37920 ft 442 kts 294°
2026-04-25 09:46 18.40664 75.67924 37915 ft 442 kts 294°
2026-04-25 09:47 18.43818 75.62383 37920 ft 442 kts 294°
2026-04-25 09:47 18.46953 75.56868 37910 ft 442 kts 294°
2026-04-25 09:48 18.50112 75.51309 37914 ft 442 kts 294°
2026-04-25 09:48 18.53266 75.45751 37909 ft 442 kts 294°
2026-04-25 09:49 18.56390 75.40242 37908 ft 442 kts 294°
2026-04-25 09:49 18.59545 75.34673 37904 ft 442 kts 294°
2026-04-25 09:50 18.62693 75.29110 37905 ft 442 kts 294°
2026-04-25 09:50 18.65836 75.23552 37906 ft 441 kts 294°
2026-04-25 09:51 18.68982 75.17985 37901 ft 441 kts 294°
2026-04-25 09:51 18.72113 75.12439 37897 ft 441 kts 294°
2026-04-25 09:52 18.75223 75.06926 37902 ft 440 kts 294°
2026-04-25 09:52 18.78196 75.01309 37901 ft 432 kts 286°
2026-04-25 09:53 18.80177 74.95378 37642 ft 425 kts 281°
2026-04-25 09:53 18.81052 74.92404 36947 ft 425 kts 281°
2026-04-25 09:53 18.81907 74.89414 36213 ft 426 kts 280°
2026-04-25 09:54 18.82758 74.86409 35497 ft 428 kts 280°
2026-04-25 09:54 18.83302 74.84481 35042 ft 429 kts 280°
2026-04-25 09:54 18.84168 74.81406 34294 ft 431 kts 279°
2026-04-25 09:54 18.85023 74.78369 33534 ft 432 kts 279°
2026-04-25 09:55 18.86157 74.74327 32350 ft 436 kts 280°
2026-04-25 09:55 18.87018 74.71242 31400 ft 440 kts 280°
2026-04-25 09:55 18.87886 74.68124 30453 ft 444 kts 281°
2026-04-25 09:55 18.88759 74.64984 29511 ft 446 kts 281°
2026-04-25 09:56 18.89629 74.61858 28450 ft 441 kts 282°
2026-04-25 09:56 18.90199 74.59808 27693 ft 439 kts 282°
2026-04-25 09:56 18.91056 74.56717 26569 ft 438 kts 283°
2026-04-25 09:56 18.91910 74.53634 25510 ft 436 kts 283°
2026-04-25 09:57 18.92757 74.50581 24498 ft 434 kts 284°
2026-04-25 09:57 18.93608 74.47525 23507 ft 433 kts 285°
2026-04-25 09:57 18.94455 74.44488 22416 ft 430 kts 285°
2026-04-25 09:57 18.95295 74.41482 21471 ft 423 kts 285°
2026-04-25 09:58 18.96122 74.38524 20538 ft 417 kts 285°
2026-04-25 09:58 18.96938 74.35605 19610 ft 412 kts 286°
2026-04-25 09:58 18.97748 74.32701 18919 ft 410 kts 286°
2026-04-25 09:58 18.98530 74.29898 18657 ft 397 kts 286°
2026-04-25 09:59 18.99282 74.27143 18448 ft 383 kts 284°
2026-04-25 09:59 18.99775 74.24442 18264 ft 370 kts 277°
2026-04-25 09:59 19.00056 74.21790 18061 ft 357 kts 275°
2026-04-25 09:59 19.00283 74.19220 17713 ft 350 kts 275°
2026-04-25 10:00 19.00501 74.16658 17263 ft 347 kts 275°
2026-04-25 10:00 19.00713 74.14128 16783 ft 344 kts 275°
2026-04-25 10:00 19.00915 74.11688 16321 ft 342 kts 275°
2026-04-25 10:00 19.01124 74.09155 15830 ft 340 kts 275°
2026-04-25 10:01 19.01326 74.06672 15381 ft 338 kts 275°
2026-04-25 10:01 19.01524 74.04207 14925 ft 336 kts 275°
2026-04-25 10:01 19.01720 74.01754 14482 ft 334 kts 275°
2026-04-25 10:01 19.01912 73.99309 14038 ft 333 kts 275°
2026-04-25 10:02 19.02101 73.96881 13603 ft 331 kts 275°
2026-04-25 10:02 19.02287 73.94464 13134 ft 329 kts 275°
2026-04-25 10:02 19.02471 73.92060 12652 ft 328 kts 275°
2026-04-25 10:02 19.02653 73.89668 12208 ft 326 kts 275°
2026-04-25 10:03 19.02829 73.87291 11760 ft 324 kts 275°
2026-04-25 10:03 19.02998 73.84992 11333 ft 322 kts 275°
2026-04-25 10:03 19.03174 73.82600 10875 ft 321 kts 275°
2026-04-25 10:03 19.03342 73.80275 10543 ft 315 kts 275°
2026-04-25 10:04 19.03504 73.77989 10227 ft 310 kts 275°
2026-04-25 10:04 19.03663 73.75751 9948 ft 316 kts 275°
2026-04-25 10:04 19.03836 73.73353 9858 ft 336 kts 275°
2026-04-25 10:04 19.04020 73.70889 9854 ft 343 kts 275°
2026-04-25 10:05 19.04211 73.68400 9846 ft 344 kts 275°
2026-04-25 10:05 19.04399 73.65981 9592 ft 344 kts 275°
2026-04-25 10:05 19.04595 73.63468 9034 ft 342 kts 275°
2026-04-25 10:05 19.04783 73.60984 8590 ft 336 kts 275°
2026-04-25 10:06 19.04959 73.58566 8354 ft 324 kts 275°
2026-04-25 10:06 19.05127 73.56238 8154 ft 313 kts 275°
2026-04-25 10:06 19.05287 73.54002 7834 ft 308 kts 275°
2026-04-25 10:06 19.05448 73.51776 7447 ft 303 kts 275°
2026-04-25 10:07 19.05603 73.49559 7019 ft 301 kts 275°
2026-04-25 10:07 19.05756 73.47368 6622 ft 299 kts 275°
2026-04-25 10:07 19.05906 73.45192 6239 ft 296 kts 275°
2026-04-25 10:07 19.06052 73.43037 5911 ft 290 kts 275°
2026-04-25 10:08 19.06189 73.40959 5769 ft 278 kts 275°
2026-04-25 10:08 19.06310 73.39064 5597 ft 268 kts 275°
2026-04-25 10:08 19.06430 73.37138 5318 ft 263 kts 275°
2026-04-25 10:08 19.06547 73.35221 5018 ft 259 kts 275°
2026-04-25 10:09 19.06659 73.33370 4826 ft 256 kts 275°
2026-04-25 10:09 19.06770 73.31492 4786 ft 257 kts 275°
2026-04-25 10:09 19.06883 73.29601 4796 ft 258 kts 275°
2026-04-25 10:09 19.06997 73.27711 4920 ft 258 kts 275°
2026-04-25 10:10 19.07193 73.25834 4980 ft 258 kts 282°
2026-04-25 10:10 19.07599 73.23985 5000 ft 259 kts 286°
2026-04-25 10:10 19.08103 73.22168 5015 ft 259 kts 288°
2026-04-25 10:10 19.08647 73.20358 5003 ft 259 kts 288°
2026-04-25 10:11 19.09200 73.18545 4986 ft 259 kts 289°
2026-04-25 10:11 19.09742 73.16777 4997 ft 260 kts 289°
2026-04-25 10:12 19.09966 73.16045 5002 ft 259 kts 289°
2026-04-25 10:12 19.10517 73.14243 4985 ft 261 kts 289°
2026-04-25 10:12 19.11592 73.11737 4998 ft 257 kts 313°
2026-04-25 10:13 19.13023 73.10694 4992 ft 253 kts 342°
2026-04-25 10:13 19.14749 73.10372 4997 ft 252 kts 358°
2026-04-25 10:13 19.16505 73.10311 4872 ft 253 kts
2026-04-25 10:13 19.18268 73.10300 4532 ft 253 kts
2026-04-25 10:14 19.19971 73.10605 4206 ft 250 kts 24°
2026-04-25 10:14 19.21293 73.11746 4017 ft 247 kts 55°
2026-04-25 10:14 19.21878 73.13445 4002 ft 251 kts 82°
2026-04-25 10:14 19.21945 73.15274 3996 ft 255 kts 89°
2026-04-25 10:15 19.21895 73.17156 3996 ft 256 kts 90°
2026-04-25 10:15 19.21824 73.19037 3986 ft 255 kts 90°
2026-04-25 10:15 19.21749 73.20843 4002 ft 239 kts 91°
2026-04-25 10:15 19.21537 73.22502 4033 ft 220 kts 109°
2026-04-25 10:16 19.20639 73.23734 4019 ft 210 kts 146°
2026-04-25 10:16 19.19300 73.24213 4008 ft 205 kts 173°
2026-04-25 10:16 19.17878 73.24296 3992 ft 206 kts 179°
2026-04-25 10:16 19.16436 73.24308 3999 ft 208 kts 180°
2026-04-25 10:17 19.15031 73.24075 3989 ft 205 kts 207°
2026-04-25 10:17 19.13983 73.23137 4008 ft 201 kts 233°
2026-04-25 10:17 19.13177 73.21933 3999 ft 201 kts 240°
2026-04-25 10:17 19.12726 73.20577 4001 ft 195 kts 269°
2026-04-25 10:18 19.12599 73.19140 4020 ft 199 kts 264°
2026-04-25 10:18 19.12339 73.17703 3984 ft 199 kts 260°
2026-04-25 10:18 19.12011 73.16282 3982 ft 200 kts 258°
2026-04-25 10:18 19.11641 73.14861 3986 ft 200 kts 256°
2026-04-25 10:19 19.11247 73.13447 3990 ft 201 kts 256°
2026-04-25 10:19 19.10835 73.12033 3990 ft 201 kts 255°
2026-04-25 10:19 19.10418 73.10627 3992 ft 201 kts 255°
2026-04-25 10:19 19.09997 73.09227 3989 ft 200 kts 255°
2026-04-25 10:20 19.09587 73.07880 3933 ft 195 kts 254°
2026-04-25 10:20 19.09241 73.06485 3739 ft 196 kts 264°
2026-04-25 10:20 19.09117 73.05061 3434 ft 194 kts 270°
2026-04-25 10:20 19.09066 73.03647 3092 ft 192 kts 272°
2026-04-25 10:21 19.09038 73.02232 2921 ft 193 kts 272°
2026-04-25 10:21 19.09016 73.00818 2902 ft 194 kts 272°
2026-04-25 10:21 19.08994 72.99420 2739 ft 187 kts 273°
2026-04-25 10:21 19.08974 72.98052 2348 ft 187 kts 274°
2026-04-25 10:22 19.08954 72.96678 1943 ft 187 kts 273°
2026-04-25 10:22 19.08934 72.95334 1591 ft 184 kts 273°
2026-04-25 10:22 19.08919 72.94018 1490 ft 167 kts 270°
2026-04-25 10:22 19.08923 72.92846 1299 ft 158 kts 270°
2026-04-25 10:23 19.08921 72.91719 1033 ft 155 kts 270°
2026-04-25 10:23 19.08927 72.90833 929 ft 156 kts 270°
2026-04-25 10:23 19.08913 72.89698 601 ft 154 kts 269°
2026-04-25 10:23 19.08891 72.88599 334 ft 146 kts 269°
2026-04-25 10:24 19.08887 72.88106 205 ft 145 kts 269°
2026-04-25 10:24 19.08879 72.87293 50 ft 135 kts 269°
2026-04-25 10:24 19.08867 72.86434 33 ft 95 kts 269°
2026-04-25 10:24 19.08876 72.86001 32 ft 39 kts 283°
2026-04-25 10:25 19.08952 72.85834 34 ft 8 kts 302°
2026-04-25 10:25 19.08966 72.85812 34 ft 3 kts 302°
2026-04-25 10:25 19.08977 72.85792 33 ft 3 kts 302°
2026-04-25 10:25 19.08987 72.85775 35 ft 3 kts 302°
2026-04-25 10:26 19.08997 72.85759 35 ft 2 kts 302°
2026-04-25 10:26 19.09000 72.85755 35 ft 0 kts 302°
2026-04-25 10:27 19.09009 72.85739 34 ft 5 kts 302°
2026-04-25 10:27 19.09027 72.85683 34 ft 11 kts 275°
2026-04-25 10:27 19.09058 72.85605 36 ft 14 kts 333°
2026-04-25 10:27 19.09098 72.85519 36 ft 15 kts 266°
2026-04-25 10:28 19.09102 72.85455 35 ft 5 kts 307°
2026-04-25 10:28 19.09131 72.85448 36 ft 4 kts
2026-04-25 10:28 19.09154 72.85448 36 ft 1 kts 359°
2026-04-25 10:28 19.09161 72.85448 36 ft 0 kts 359°